Wind_Speed
7 8 8 8 8 8 8 9 9 9 9 9 8 7 8 8 9 9 9 10 10 10 9 9 9 9 9 10 10 10 9 9 9 10 11 10 10 10 10 10 11 10 10
8 8 8 8 9 9 9 9 9 10 10 9 9 9 9 10 10 10 10 10 10 10 10 10 11 10 11 10 11 11 11 10 10 11 11 11 11 11 11 12 11 11 11
8 8 9 9 10 10 10 10 10 9 10 10 10 9 10 10 11 11 11 11 11 11 11 11 11 11 11 12 12 12 12 12 12 11 12 12 12 12 12 13 12 12 12
10 10 10 11 11 11 11 11 11 11 11 11 11 11 11 11 12 12 12 12 12 12 12 12 12 12 12 12 12 12 13 13 13 12 12 13 12 13 13 14 14 13 13
12 12 12 12 12 11 11 11 12 11 11 12 12 12 12 12 13 13 13 13 12 13 13 13 14 13 13 13 13 13 13 14 14 14 13 13 13 14 15 15 15 15 15
14 14 14 13 12 13 13 12 12 12 12 12 13 13 13 14 14 14 13 13 14 14 14 14 15 15 15 15 14 15 15 15 15 15 15 14 14 15 15 15 16 16 16
15 15 15 14 14 13 14 13 13 13 13 13 14 14 15 15 15 14 14 14 14 14 15 15 15 16 16 16 16 16 16 17 16 16 16 16 16 16 16 15 15 16 16
15 15 15 16 15 15 15 14 14 15 15 15 15 16 16 16 15 15 15 15 15 15 16 16 16 16 17 17 17 17 18 18 18 17 17 17 17 17 17 17 17 17 17
15 16 16 16 15 15 15 15 15 16 16 16 16 17 17 16 16 16 16 16 16 16 16 16 16 17 17 17 17 17 17 18 19 19 18 17 17 17 17 18 18 19 18
15 15 15 16 15 15 15 16 16 16 17 17 17 17 17 17 17 17 17 17 17 17 17 17 17 17 17 17 18 18 18 18 18 19 19 19 18 18 18 18 19 20 20
15 15 15 15 15 15 16 16 16 16 18 18 18 18 19 19 18 17 17 17 17 18 18 18 18 18 18 17 18 18 18 18 19 18 19 19 20 19 19 19 20 21 21
16 17 15 14 15 16 16 16 16 17 18 18 19 19 19 20 19 18 18 18 18 18 18 18 18 18 18 17 17 18 18 18 18 18 19 20 20 21 21 21 21 22 22
17 16 15 15 16 17 17 17 18 18 18 19 19 19 20 20 20 20 19 19 19 19 18 18 18 18 18 18 19 18 19 20 19 18 18 19 20 20 21 22 22 22 22
17 17 17 17 17 17 18 18 19 19 19 19 19 20 20 20 19 19 19 19 19 18 18 19 18 18 18 18 18 18 19 19 19 18 18 19 20 21 22 22 22 23 23
17 18 18 18 18 18 18 19 19 19 19 20 20 20 19 19 19 19 19 19 19 19 19 19 19 19 19 19 19 19 19 19 20 20 19 19 20 21 22 22 23 24 24
18 19 19 18 18 18 19 20 19 19 19 19 20 20 20 20 19 19 19 19 19 19 20 20 20 20 20 19 19 20 20 20 20 20 20 20 20 22 23 24 24 23 24
19 19 19 20 20 19 19 20 21 19 18 19 20 21 21 20 20 19 19 19 19 19 19 19 19 19 19 19 20 21 21 21 21 21 22 22 22 22 23 24 24 24 24
20 20 20 22 21 21 21 20 21 21 20 20 21 21 21 21 21 20 20 19 19 19 19 19 18 18 19 20 21 21 22 23 22 23 23 24 24 23 23 24 24 25 26
21 21 21 22 22 22 21 21 22 22 21 21 21 21 22 21 20 19 18 18 18 18 18 19 18 19 19 20 21 22 22 23 23 23 24 24 24 23 24 25 25 26 26
21 21 21 22 22 23 22 22 22 22 22 22 21 21 21 21 20 19 19 18 18 17 17 18 18 19 19 19 21 21 21 22 22 23 23 24 24 25 25 25 25 25 26
21 22 22 23 23 23 23 22 23 23 22 21 21 22 21 20 19 19 19 18 17 17 18 17 17 18 18 19 19 20 20 21 22 23 24 24 24 25 25 25 25 26 26
22 22 22 22 22 22 21 22 22 21 21 21 21 21 21 19 18 18 18 17 16 16 16 17 16 17 18 19 19 19 20 21 21 22 23 23 23 23 24 25 26 27 28
22 21 21 20 20 20 20 21 20 20 20 19 20 20 19 19 18 17 17 16 16 16 15 15 16 17 18 18 19 20 20 20 21 22 22 23 23 23 23 24 25 27 27
21 21 20 18 18 18 19 19 19 19 18 18 18 18 17 18 17 15 15 15 15 15 14 15 16 17 18 18 19 19 20 20 20 21 21 21 22 23 23 24 25 25 25
20 20 20 18 18 18 18 18 18 18 17 16 17 16 16 16 16 16 15 16 15 15 14 15 16 17 18 18 19 19 19 20 20 20 20 20 21 21 21 22 22 23 25
20 20 18 18 17 17 18 17 16 16 15 15 16 16 16 15 15 15 15 15 15 15 15 16 17 17 17 18 18 19 19 19 20 21 21 21 20 21 22 23 23 24 26
Wind_Direction
285 284 280 281 274 276 278 279 281 281 282 280 285 280 278 277 274 269 264 262 262 258 256 256 256 256 257 255 251 250 246 243 242 240 240 240 240 239 240 239 237 233 233
288 286 284 285 281 281 282 284 283 284 285 284 285 282 280 278 278 274 269 266 267 265 262 260 259 259 260 257 253 250 248 247 246 246 243 241 241 240 239 239 236 233 233
301 296 291 289 287 289 290 288 285 285 285 286 285 284 280 278 278 278 274 271 271 269 266 263 261 259 259 257 254 251 251 250 250 247 244 245 243 243 243 240 238 235 236
300 299 292 290 291 291 291 290 289 285 287 287 285 285 282 280 280 279 276 274 273 271 268 265 263 260 259 256 255 252 251 251 252 250 247 247 245 246 247 244 241 238 237
296 296 294 292 293 292 288 288 290 289 290 288 285 287 284 281 283 282 279 276 274 272 269 266 264 262 260 259 257 253 251 251 252 252 251 247 246 246 248 245 242 240 240
294 296 294 291 290 290 290 290 292 291 290 291 288 285 285 281 282 282 280 279 276 273 270 267 265 264 263 261 260 259 255 254 253 253 253 249 248 246 246 246 245 242 241
293 292 292 291 294 294 292 293 294 293 294 292 291 288 284 282 283 285 282 280 278 275 271 267 265 263 263 262 261 258 257 256 257 255 251 252 250 247 246 245 243 245 244
293 292 292 291 295 296 294 290 292 293 293 293 292 291 287 285 285 284 283 281 278 276 273 268 264 262 262 262 261 261 259 257 257 256 253 251 250 247 246 247 248 247 247
291 293 292 292 293 296 297 293 292 292 291 290 291 292 290 286 285 284 281 278 277 274 272 269 266 265 265 263 264 263 261 259 257 256 254 253 254 251 250 250 251 249 247
296 295 293 292 292 296 297 296 294 294 292 291 293 292 291 286 284 282 279 276 274 272 270 268 265 263 264 266 266 265 263 261 258 258 254 254 256 255 253 254 253 250 249
296 297 296 297 298 298 300 301 298 297 297 296 296 294 293 290 287 281 277 275 273 271 270 267 265 264 265 267 265 264 264 261 260 260 259 259 259 258 255 254 254 253 252
295 294 300 302 302 302 302 303 300 299 299 297 295 293 292 289 286 282 279 276 273 271 269 267 266 266 265 265 265 265 264 264 264 264 264 262 261 259 256 255 254 254 253
301 300 298 300 301 301 302 302 301 298 296 294 293 291 290 288 284 282 280 277 275 271 268 268 268 269 267 266 265 267 267 265 265 265 264 262 262 261 259 257 256 255 254
301 302 299 299 300 300 301 301 300 297 294 293 292 292 291 289 285 282 283 280 276 273 270 269 267 268 268 267 265 267 268 268 266 267 266 265 261 261 262 259 257 256 256
299 299 302 301 300 300 301 299 298 297 297 293 292 291 290 290 289 286 282 280 277 275 272 272 268 267 269 269 268 270 271 269 268 268 267 267 265 261 261 261 258 255 255
299 300 300 300 300 299 300 298 298 298 298 295 293 292 292 292 292 289 285 281 279 277 274 273 270 269 268 269 270 271 269 269 268 268 268 267 267 264 260 260 258 256 255
299 300 298 298 299 299 302 300 299 298 297 296 296 294 293 293 292 289 288 283 279 276 275 273 271 271 270 271 272 271 271 270 269 269 269 270 268 265 264 259 259 258 257
301 298 298 298 298 298 298 299 298 296 294 293 294 294 294 293 291 288 287 283 278 275 274 272 271 272 271 273 274 273 272 271 270 270 269 270 269 266 264 261 260 260 258
303 299 298 297 297 297 296 298 299 295 293 292 294 295 296 293 290 287 286 283 279 275 274 273 270 271 272 273 274 274 273 273 271 271 270 271 270 267 264 263 261 261 260
301 300 298 297 296 298 298 297 299 297 293 293 292 295 295 294 289 285 283 282 280 276 275 274 271 272 273 274 276 275 274 275 274 273 272 272 271 267 265 265 262 261 260
301 300 297 296 296 297 296 297 297 298 296 293 291 292 293 293 289 284 283 282 281 277 275 274 274 275 275 275 278 278 277 278 278 276 274 273 271 269 267 265 262 261 261
303 301 297 295 296 297 297 298 297 298 300 296 294 293 293 293 290 285 283 285 283 279 276 274 275 276 277 276 279 278 278 280 282 279 277 276 273 270 269 267 264 262 261
307 304 300 300 299 297 298 298 300 301 301 298 296 296 293 290 289 288 287 288 287 283 279 275 276 279 280 279 279 279 281 281 281 280 279 277 274 272 270 269 266 263 262
309 306 302 301 300 298 300 301 302 303 301 299 296 297 295 292 291 294 293 292 290 287 281 277 278 280 281 281 281 281 282 284 283 283 281 279 276 273 271 270 268 265 263
311 308 302 298 301 302 303 304 304 302 300 298 299 298 297 295 292 291 293 291 288 286 283 281 282 283 283 281 280 280 282 284 284 285 283 281 278 275 274 273 272 268 265
311 308 305 302 301 302 303 304 305 303 302 298 301 300 299 299 295 291 292 293 288 286 285 282 282 284 284 285 283 283 284 285 286 286 284 282 281 277 275 275 274 271 267
Height
5879 5878 5877 5877 5877 5877 5876 5876 5875 5875 5875 5874 5874 5873 5873 5873 5873 5873 5872 5872 5872 5872 5872 5872 5872 5873 5873 5873 5873 5874 5875 5875 5876 5877 5877 5878 5878 5879 5880 5881 5882 5883 5885
5877 5876 5876 5876 5876 5875 5875 5874 5874 5874 5873 5873 5872 5872 5872 5872 5871 5871 5871 5870 5870 5870 5870 5870 5870 5871 5871 5871 5871 5872 5873 5874 5874 5875 5876 5876 5877 5878 5879 5880 5880 5881 5883
5875 5875 5875 5874 5874 5874 5873 5873 5872 5872 5872 5871 5871 5870 5870 5870 5869 5869 5869 5868 5868 5868 5868 5868 5868 5868 5868 5868 5869 5870 5871 5872 5872 5873 5874 5874 5875 5876 5877 5878 5879 5880 5881
5874 5874 5873 5873 5872 5872 5871 5871 5870 5870 5869 5869 5869 5868 5868 5867 5867 5867 5866 5866 5866 5865 5865 5865 5865 5865 5865 5866 5866 5867 5868 5869 5870 5871 5871 5872 5873 5874 5875 5876 5877 5878 5879
5873 5873 5872 5871 5870 5869 5869 5869 5868 5868 5867 5867 5866 5866 5865 5865 5864 5864 5864 5863 5863 5863 5862 5862 5863 5863 5863 5863 5864 5865 5865 5866 5867 5868 5868 5870 5871 5871 5872 5873 5874 5875 5876
5871 5870 5870 5869 5868 5867 5867 5866 5866 5865 5864 5864 5864 5863 5863 5862 5862 5861 5860 5860 5860 5859 5859 5859 5860 5860 5860 5860 5861 5861 5862 5863 5864 5865 5866 5867 5868 5869 5870 5870 5871 5872 5873
5869 5868 5867 5867 5866 5865 5864 5864 5863 5863 5862 5861 5861 5860 5860 5859 5858 5858 5857 5857 5856 5856 5856 5856 5856 5856 5857 5857 5858 5858 5859 5860 5861 5862 5863 5863 5864 5866 5866 5867 5868 5869 5871
5867 5866 5865 5865 5864 5863 5862 5861 5860 5860 5859 5858 5858 5857 5857 5856 5855 5854 5854 5853 5853 5853 5853 5852 5853 5853 5853 5853 5854 5855 5855 5856 5857 5858 5859 5860 5860 5862 5863 5864 5865 5866 5867
5864 5863 5863 5862 5861 5860 5859 5859 5858 5857 5856 5855 5854 5854 5853 5852 5852 5851 5850 5849 5849 5849 5849 5848 5849 5849 5849 5850 5850 5851 5851 5852 5853 5854 5855 5856 5857 5858 5859 5860 5861 5863 5864
5862 5860 5858 5859 5857 5857 5856 5855 5855 5854 5853 5852 5851 5850 5849 5848 5847 5847 5846 5846 5845 5845 5845 5844 5845 5845 5845 5846 5846 5847 5847 5848 5849 5850 5851 5852 5853 5855 5856 5856 5858 5859 5860
5859 5858 5856 5855 5855 5854 5853 5852 5851 5850 5849 5848 5847 5846 5845 5844 5843 5842 5842 5841 5841 5841 5840 5840 5841 5841 5841 5842 5842 5843 5843 5844 5844 5846 5847 5849 5849 5851 5852 5853 5854 5855 5857
5856 5855 5853 5852 5852 5851 5850 5849 5847 5846 5845 5844 5843 5842 5841 5840 5839 5838 5838 5837 5836 5836 5836 5836 5836 5837 5837 5838 5838 5839 5839 5840 5841 5842 5843 5844 5845 5846 5847 5849 5850 5851 5852
5853 5852 5851 5850 5849 5848 5847 5845 5844 5843 5841 5840 5839 5837 5836 5835 5834 5834 5833 5832 5832 5832 5832 5832 5832 5833 5833 5834 5834 5834 5835 5836 5837 5838 5839 5840 5841 5842 5843 5844 5845 5847 5848
5851 5850 5849 5847 5846 5845 5844 5842 5841 5839 5838 5836 5834 5833 5832 5831 5830 5829 5828 5828 5828 5827 5828 5828 5828 5828 5829 5829 5829 5830 5830 5831 5832 5833 5834 5835 5836 5837 5837 5839 5840 5842 5843
5848 5847 5846 5845 5843 5842 5840 5839 5837 5835 5833 5832 5830 5829 5827 5826 5825 5824 5824 5823 5823 5823 5823 5824 5824 5824 5825 5825 5825 5826 5826 5827 5828 5829 5829 5830 5831 5832 5832 5834 5835 5837 5838
5846 5844 5843 5841 5840 5838 5836 5835 5833 5831 5829 5828 5826 5825 5823 5822 5821 5820 5819 5818 5818 5818 5819 5819 5819 5820 5820 5820 5821 5821 5822 5822 5823 5823 5824 5825 5826 5827 5827 5829 5830 5831 5833
5842 5841 5840 5838 5836 5834 5832 5831 5829 5827 5825 5823 5822 5821 5819 5817 5816 5815 5814 5813 5813 5813 5813 5814 5814 5815 5815 5815 5816 5816 5817 5817 5818 5818 5819 5820 5821 5821 5822 5823 5824 5826 5827
5839 5837 5836 5834 5832 5831 5829 5827 5825 5823 5821 5819 5818 5816 5815 5813 5811 5810 5809 5808 5808 5808 5808 5809 5810 5810 5810 5810 5811 5811 5811 5812 5812 5813 5813 5814 5815 5816 5816 5817 5818 5819 5821
5835 5833 5831 5830 5828 5826 5824 5822 5820 5818 5816 5814 5813 5812 5810 5808 5806 5805 5804 5803 5803 5803 5803 5804 5805 5805 5806 5805 5806 5805 5806 5806 5806 5806 5807 5807 5808 5809 5810 5811 5812 5813 5814
5830 5828 5826 5825 5823 5821 5820 5818 5815 5813 5811 5809 5808 5807 5805 5803 5801 5800 5799 5799 5798 5798 5798 5799 5800 5800 5800 5800 5800 5800 5800 5800 5800 5801 5801 5801 5801 5802 5803 5804 5805 5806 5807
5825 5823 5822 5820 5819 5817 5815 5813 5810 5809 5807 5805 5803 5801 5800 5798 5797 5795 5795 5794 5793 5793 5794 5794 5795 5795 5795 5795 5795 5795 5795 5795 5795 5795 5794 5794 5794 5795 5796 5796 5798 5799 5800
5821 5819 5817 5815 5813 5811 5810 5808 5805 5803 5802 5800 5798 5796 5795 5793 5792 5791 5791 5790 5789 5789 5789 5790 5790 5790 5790 5790 5790 5790 5790 5790 5789 5789 5788 5788 5788 5788 5789 5789 5790 5792 5793
5816 5814 5812 5810 5809 5807 5805 5803 5801 5799 5797 5795 5794 5792 5790 5789 5788 5787 5786 5786 5785 5785 5785 5785 5786 5786 5786 5785 5785 5785 5784 5784 5784 5783 5782 5781 5781 5781 5782 5783 5783 5784 5785
5812 5809 5808 5806 5804 5802 5800 5798 5796 5794 5793 5791 5790 5788 5787 5786 5784 5784 5783 5782 5781 5781 5781 5781 5781 5781 5781 5781 5780 5779 5779 5778 5778 5778 5777 5776 5775 5775 5776 5776 5777 5777 5778
5808 5805 5803 5801 5800 5798 5796 5795 5793 5791 5789 5788 5786 5785 5784 5782 5781 5780 5779 5778 5778 5777 5777 5777 5777 5777 5776 5776 5775 5774 5774 5773 5772 5772 5772 5771 5770 5770 5770 5770 5770 5770 5771
5804 5802 5799 5797 5795 5794 5792 5791 5789 5787 5786 5785 5783 5782 5781 5780 5778 5777 5776 5775 5774 5774 5774 5773 5773 5772 5772 5771 5770 5769 5769 5768 5767 5766 5766 5765 5765 5764 5764 5764 5764 5764 5765